ASA563 PAKT-PAJN

Flight info

Callsign ASA563
Flight time N/A
Altitude 28000
Route DOOZI2 LVD HOODS SSR
Aircraft B738/M-SDGIJ1LRWY/SB1

Departure

Time 2026-04-21 01:14
Airport Ketchikan International Airport (PAKT)

Arrival

Time N/A
Airport Juneau International Airport (PAJN)
Time Latitude Longitude Altitude Speed Heading
2026-04-21 00:27 55.35663 -131.71043 34 ft 0 kts 45°
2026-04-21 00:53 55.35663 -131.71045 34 ft 1 kts 45°
2026-04-21 00:53 55.35652 -131.71062 34 ft 2 kts 45°
2026-04-21 00:54 55.35642 -131.71081 34 ft 2 kts 45°
2026-04-21 00:54 55.35632 -131.71100 34 ft 2 kts 46°
2026-04-21 00:54 55.35622 -131.71120 34 ft 2 kts 65°
2026-04-21 00:54 55.35618 -131.71146 34 ft 2 kts 91°
2026-04-21 00:55 55.35621 -131.71172 34 ft 2 kts 118°
2026-04-21 00:55 55.35626 -131.71185 34 ft 1 kts 134°
2026-04-21 00:55 55.35631 -131.71193 34 ft 0 kts 135°
2026-04-21 01:07 55.35631 -131.71191 34 ft 0 kts 135°
2026-04-21 01:07 55.35612 -131.71158 33 ft 7 kts 134°
2026-04-21 01:07 55.35556 -131.71057 33 ft 15 kts 134°
2026-04-21 01:07 55.35465 -131.70894 34 ft 22 kts 136°
2026-04-21 01:08 55.35346 -131.70700 48 ft 23 kts 136°
2026-04-21 01:08 55.35231 -131.70517 65 ft 22 kts 137°
2026-04-21 01:08 55.35126 -131.70348 87 ft 17 kts 137°
2026-04-21 01:08 55.35033 -131.70198 97 ft 17 kts 137°
2026-04-21 01:09 55.34947 -131.70067 100 ft 15 kts 147°
2026-04-21 01:09 55.34908 -131.70047 100 ft 0 kts 181°
2026-04-21 01:10 55.34900 -131.70050 100 ft 4 kts 191°
2026-04-21 01:10 55.34871 -131.70077 100 ft 4 kts 211°
2026-04-21 01:10 55.34825 -131.70100 100 ft 6 kts 174°
2026-04-21 01:10 55.34788 -131.70062 99 ft 12 kts 138°
2026-04-21 01:11 55.34718 -131.69961 98 ft 12 kts 150°
2026-04-21 01:11 55.34679 -131.69900 98 ft 2 kts 84°
2026-04-21 01:11 55.34685 -131.69885 98 ft 1 kts 41°
2026-04-21 01:11 55.34700 -131.69884 98 ft 1 kts 336°
2026-04-21 01:12 55.34706 -131.69894 98 ft 0 kts 302°
2026-04-21 01:12 55.34708 -131.69900 98 ft 2 kts 293°
2026-04-21 01:12 55.34712 -131.69919 98 ft 1 kts 290°
2026-04-21 01:12 55.34722 -131.69951 98 ft 4 kts 308°
2026-04-21 01:13 55.34775 -131.70042 99 ft 28 kts 315°
2026-04-21 01:13 55.35083 -131.70570 101 ft 94 kts 316°
2026-04-21 01:13 55.35680 -131.71587 96 ft 146 kts 316°
2026-04-21 01:13 55.36420 -131.72870 595 ft 151 kts 316°
2026-04-21 01:14 55.37165 -131.74152 1180 ft 155 kts 317°
2026-04-21 01:14 55.37961 -131.75465 1664 ft 161 kts 317°
2026-04-21 01:14 55.38791 -131.76859 2048 ft 173 kts 317°
2026-04-21 01:14 55.39683 -131.78368 2454 ft 185 kts 316°
2026-04-21 01:15 55.40619 -131.80003 2842 ft 199 kts 315°
2026-04-21 01:15 55.41637 -131.81808 3177 ft 218 kts 315°
2026-04-21 01:15 55.42758 -131.83772 3613 ft 234 kts 315°
2026-04-21 01:15 55.43934 -131.85809 4111 ft 246 kts 316°
2026-04-21 01:16 55.45171 -131.87946 4725 ft 253 kts 316°
2026-04-21 01:16 55.46411 -131.90089 5418 ft 256 kts 315°
2026-04-21 01:16 55.47679 -131.92284 6181 ft 257 kts 315°
2026-04-21 01:16 55.48930 -131.94459 6925 ft 258 kts 315°
2026-04-21 01:17 55.50197 -131.96666 7751 ft 257 kts 315°
2026-04-21 01:17 55.51442 -131.98836 8503 ft 259 kts 314°
2026-04-21 01:17 55.52686 -132.01003 9311 ft 258 kts 314°
2026-04-21 01:17 55.53956 -132.03215 10101 ft 258 kts 313°
2026-04-21 01:18 55.55255 -132.05411 10652 ft 268 kts 315°
2026-04-21 01:18 55.56691 -132.07625 11109 ft 283 kts 317°
2026-04-21 01:18 55.58214 -132.09894 11514 ft 298 kts 317°
2026-04-21 01:18 55.59822 -132.12289 12006 ft 309 kts 317°
2026-04-21 01:19 55.61476 -132.14772 12740 ft 314 kts 316°
2026-04-21 01:19 55.63112 -132.17191 13474 ft 318 kts 319°
2026-04-21 01:19 55.64901 -132.19394 14279 ft 321 kts 323°
2026-04-21 01:19 55.66825 -132.21466 15065 ft 325 kts 325°
2026-04-21 01:20 55.68761 -132.23459 15788 ft 330 kts 326°
2026-04-21 01:20 55.70722 -132.25475 16536 ft 333 kts 325°
2026-04-21 01:20 55.72702 -132.27534 17292 ft 335 kts 324°
2026-04-21 01:20 55.74722 -132.29666 18048 ft 337 kts 324°
2026-04-21 01:21 55.76683 -132.31752 18715 ft 341 kts 324°
2026-04-21 01:21 55.78733 -132.33943 19420 ft 344 kts 324°
2026-04-21 01:21 55.80777 -132.36134 20080 ft 347 kts 324°
2026-04-21 01:21 55.82819 -132.38324 20706 ft 350 kts 324°
2026-04-21 01:22 55.84904 -132.40564 21313 ft 353 kts 323°
2026-04-21 01:22 55.86999 -132.42816 21939 ft 356 kts 323°
2026-04-21 01:22 55.89118 -132.45099 22497 ft 360 kts 324°
2026-04-21 01:22 55.91232 -132.47377 23058 ft 363 kts 324°
2026-04-21 01:23 55.93382 -132.49696 23655 ft 365 kts 323°
2026-04-21 01:23 55.95544 -132.52033 24183 ft 368 kts 323°
2026-04-21 01:23 55.97756 -132.54427 24669 ft 372 kts 323°
2026-04-21 01:23 55.99923 -132.56776 25150 ft 375 kts 323°
2026-04-21 01:24 56.02163 -132.59204 25613 ft 378 kts 323°
2026-04-21 01:24 56.04375 -132.61606 26119 ft 379 kts 323°
2026-04-21 01:24 56.06578 -132.64002 26515 ft 383 kts 323°
2026-04-21 01:24 56.08813 -132.66437 26976 ft 385 kts 322°
2026-04-21 01:25 56.10976 -132.68791 27581 ft 383 kts 322°
2026-04-21 01:25 56.12846 -132.70828 27962 ft 382 kts 321°
2026-04-21 01:25 56.17600 -132.76031 28046 ft 382 kts 322°
2026-04-21 01:26 56.22091 -132.80954 28046 ft 380 kts 322°
2026-04-21 01:26 56.26283 -132.85568 28055 ft 380 kts 322°
2026-04-21 01:27 56.30721 -132.90466 28052 ft 380 kts 322°
2026-04-21 01:27 56.35134 -132.95352 28050 ft 381 kts 321°
2026-04-21 01:28 56.39587 -133.00290 28049 ft 379 kts 322°
2026-04-21 01:28 56.44032 -133.05237 28050 ft 378 kts 322°
2026-04-21 01:29 56.48463 -133.10225 28057 ft 379 kts 321°
2026-04-21 01:29 56.52784 -133.15404 28046 ft 376 kts 320°
2026-04-21 01:30 56.57100 -133.20686 28057 ft 377 kts 320°
2026-04-21 01:30 56.61423 -133.25960 28047 ft 377 kts 320°
2026-04-21 01:31 56.65749 -133.31233 28048 ft 376 kts 320°
2026-04-21 01:31 56.69994 -133.36403 28033 ft 376 kts 320°
2026-04-21 01:32 56.74324 -133.41695 28027 ft 377 kts 320°
2026-04-21 01:32 56.78645 -133.46989 28009 ft 376 kts 320°
2026-04-21 01:33 56.82984 -133.52321 28001 ft 376 kts 320°
2026-04-21 01:33 56.87288 -133.57625 28016 ft 376 kts 320°
2026-04-21 01:34 56.91613 -133.62968 28021 ft 375 kts 320°
2026-04-21 01:34 56.95822 -133.68184 28030 ft 376 kts 319°